Beatrice, NE

12:08 PM CST on December 16, 2017 (GMT -0600)
Beatrice Municipal

Weather History for KBIE - January, 2009

Change the Weather History Date:

Wednesday, January 7, 2009

  Actual Average Record
Temperature  
Mean Temperature 29 °F -  
Max Temperature 37 °F 25 °F 62 °F (2003)
Min Temperature 21 °F 7 °F -14 °F (1968)
Degree Days  
Heating Degree Days 36    
Moisture  
Dew Point 23 °F    
Average Humidity 76    
Maximum Humidity 93    
Minimum Humidity 60    
Precipitation  
Precipitation 0.00 in - - ()
Sea Level Pressure  
Sea Level Pressure 29.60 in    
Wind  
Wind Speed 7 mph (WNW)    
Max Wind Speed 12 mph    
Max Gust Speed -    
Visibility 10 miles    
Events      
Averages and records for this station are not official NWS values.
T = Trace of Precipitation, MM = Missing Value Source: NWS Daily Summary

Daily Weather History Graph

Daily Weather History Graph

Search for Another Location

Airport or City:

Trip Planner

Search our weather history database for the weather conditions in past years. The results will help you decide how hot, cold, wet, or windy it might be!

Date:

Astronomy

Jan. 07, 2009 Rise Set
Actual Time 7:49 AM CST 5:17 PM CST
Civil Twilight 7:19 AM CST 5:47 PM CST
Nautical Twilight 6:45 AM CST 6:21 PM CST
Astronomical Twilight 6:12 AM CST 6:54 PM CST
Moon 1:35 PM CST (1/7) 4:12 AM CST (1/7)
Length of Visible Light 10h 28m
Length of Day
9h 27m
Waxing Gibbous, 84% of the Moon is Illuminated
Jan 7
Waxing Gibbous
Jan 10
Full
Jan 17
Last Quarter
Jan 26
New
Feb 2
First Quarter

Hourly Weather History & Observations

Time (CST) Temp. Windchill Dew Point Humidity Pressure Visibility Wind Dir Wind Speed Gust Speed Precip Events Conditions
12:10 AM 32.0 °F 24.2 °F 23.0 °F 69% 29.58 in 10.0 mi NW 9.2 mph - N/A   Scattered Clouds
12:30 AM 32.0 °F 24.8 °F 23.0 °F 69% 29.58 in 10.0 mi NW 8.1 mph - N/A   Scattered Clouds
12:50 AM 30.2 °F 23.4 °F 23.0 °F 75% 29.58 in 10.0 mi NW 6.9 mph - N/A   Mostly Cloudy
1:10 AM 28.4 °F 21.2 °F 21.2 °F 74% 29.57 in 10.0 mi West 6.9 mph - N/A   Scattered Clouds
1:30 AM 28.4 °F 21.2 °F 21.2 °F 74% 29.57 in 10.0 mi West 6.9 mph - N/A   Clear
1:50 AM 26.6 °F 19.1 °F 21.2 °F 80% 29.57 in 10.0 mi West 6.9 mph - N/A   Clear
2:10 AM 26.6 °F 20.0 °F 21.2 °F 80% 29.57 in 10.0 mi West 5.8 mph - N/A   Clear
2:30 AM 24.8 °F 16.9 °F 21.2 °F 86% 29.57 in 10.0 mi West 6.9 mph - N/A   Clear
2:50 AM 26.6 °F 21.2 °F 21.2 °F 80% 29.58 in 10.0 mi WNW 4.6 mph - N/A   Clear
3:10 AM 26.6 °F 19.1 °F 21.2 °F 80% 29.58 in 10.0 mi WNW 6.9 mph - N/A   Clear
3:30 AM 26.6 °F 17.5 °F 23.0 °F 86% 29.59 in 10.0 mi WNW 9.2 mph - N/A   Scattered Clouds
3:50 AM 28.4 °F 18.5 °F 23.0 °F 80% 29.60 in 10.0 mi WNW 11.5 mph - N/A   Scattered Clouds
4:10 AM 28.4 °F 19.7 °F 23.0 °F 80% 29.60 in 10.0 mi NW 9.2 mph - N/A   Overcast
4:30 AM 28.4 °F 20.4 °F 23.0 °F 80% 29.59 in 10.0 mi NW 8.1 mph - N/A   Overcast
4:50 AM 28.4 °F 21.2 °F 23.0 °F 80% 29.59 in 10.0 mi NW 6.9 mph - N/A   Overcast
5:10 AM 28.4 °F 19.7 °F 23.0 °F 80% 29.58 in 10.0 mi NW 9.2 mph - N/A   Overcast
5:30 AM 28.4 °F 21.2 °F 23.0 °F 80% 29.59 in 10.0 mi WNW 6.9 mph - N/A   Overcast
5:50 AM 26.6 °F 20.0 °F 23.0 °F 86% 29.60 in 10.0 mi West 5.8 mph - N/A   Overcast
6:10 AM 24.8 °F 16.9 °F 21.2 °F 86% 29.59 in 10.0 mi West 6.9 mph - N/A   Mostly Cloudy
6:30 AM 23.0 °F 17.0 °F 19.4 °F 86% 29.59 in 10.0 mi WNW 4.6 mph - N/A   Clear
6:50 AM 21.2 °F 11.7 °F 19.4 °F 93% 29.61 in 10.0 mi West 8.1 mph - N/A   Clear
7:10 AM 23.0 °F 13.1 °F 19.4 °F 86% 29.61 in 10.0 mi West 9.2 mph - N/A   Clear
7:30 AM 23.0 °F 13.9 °F 19.4 °F 86% 29.62 in 10.0 mi West 8.1 mph - N/A   Clear
7:50 AM 23.0 °F 14.7 °F 19.4 °F 86% 29.61 in 10.0 mi West 6.9 mph - N/A   Clear
8:10 AM 23.0 °F 13.9 °F 21.2 °F 93% 29.60 in 10.0 mi West 8.1 mph - N/A   Clear
8:30 AM 23.0 °F 18.4 °F 19.4 °F 86% 29.61 in 10.0 mi West 3.5 mph - N/A   Clear
8:50 AM 23.0 °F - 21.2 °F 93% 29.61 in 10.0 mi Calm Calm - N/A   Clear
9:10 AM 26.6 °F 20.0 °F 23.0 °F 86% 29.62 in 10.0 mi WNW 5.8 mph - N/A   Clear
9:30 AM 28.4 °F 20.4 °F 23.0 °F 80% 29.61 in 10.0 mi WNW 8.1 mph - N/A   Scattered Clouds
9:50 AM 28.4 °F 21.2 °F 23.0 °F 80% 29.62 in 10.0 mi West 6.9 mph - N/A   Overcast
10:10 AM 28.4 °F 20.4 °F 23.0 °F 80% 29.62 in 10.0 mi WNW 8.1 mph - N/A   Overcast
10:30 AM 30.2 °F 21.9 °F 23.0 °F 75% 29.64 in 10.0 mi West 9.2 mph - N/A   Overcast
10:50 AM 30.2 °F 21.9 °F 23.0 °F 75% 29.64 in 10.0 mi West 9.2 mph - N/A   Overcast
11:10 AM 30.2 °F 21.9 °F 23.0 °F 75% 29.64 in 10.0 mi West 9.2 mph - N/A   Overcast
11:30 AM 32.0 °F 25.6 °F 24.8 °F 75% 29.62 in 10.0 mi West 6.9 mph - N/A   Overcast
11:50 AM 32.0 °F 23.6 °F 24.8 °F 75% 29.62 in 10.0 mi West 10.4 mph - N/A   Overcast
12:10 PM 32.0 °F 24.2 °F 23.0 °F 69% 29.60 in 10.0 mi West 9.2 mph - N/A   Overcast
12:30 PM 33.8 °F 27.7 °F 23.0 °F 65% 29.58 in 10.0 mi West 6.9 mph - N/A   Scattered Clouds
12:50 PM 33.8 °F 29.6 °F 23.0 °F 65% 29.57 in 10.0 mi NW 4.6 mph - N/A   Mostly Cloudy
1:10 PM 35.6 °F 29.9 °F 23.0 °F 60% 29.57 in 10.0 mi NW 6.9 mph - N/A   Mostly Cloudy
1:30 PM 35.6 °F 29.2 °F 23.0 °F 60% 29.57 in 10.0 mi WNW 8.1 mph - N/A   Mostly Cloudy
1:50 PM 35.6 °F 32.8 °F 23.0 °F 60% 29.56 in 10.0 mi NNW 3.5 mph - N/A   Mostly Cloudy
2:10 PM 35.6 °F 29.9 °F 23.0 °F 60% 29.56 in 10.0 mi West 6.9 mph - N/A   Mostly Cloudy
2:30 PM 37.4 °F 31.4 °F 24.8 °F 60% 29.57 in 10.0 mi West 8.1 mph - N/A   Mostly Cloudy
2:50 PM 37.4 °F 32.8 °F 24.8 °F 60% 29.57 in 10.0 mi WNW 5.8 mph - N/A   Scattered Clouds
3:10 PM 37.4 °F 32.8 °F 24.8 °F 60% 29.59 in 10.0 mi NW 5.8 mph - N/A   Mostly Cloudy
3:30 PM 37.4 °F 33.8 °F 24.8 °F 60% 29.59 in 10.0 mi NNW 4.6 mph - N/A   Overcast
3:50 PM 37.4 °F 32.8 °F 24.8 °F 60% 29.60 in 10.0 mi NNW 5.8 mph - N/A   Scattered Clouds
4:10 PM 37.4 °F 30.8 °F 24.8 °F 60% 29.61 in 10.0 mi North 9.2 mph - N/A   Clear
4:30 PM 33.8 °F 25.3 °F 26.6 °F 75% 29.62 in 10.0 mi NNE 11.5 mph - N/A   Clear
4:50 PM 32.0 °F 24.8 °F 26.6 °F 80% 29.62 in 10.0 mi NE 8.1 mph - N/A   Clear
5:10 PM 32.0 °F 25.6 °F 26.6 °F 80% 29.64 in 10.0 mi NE 6.9 mph - N/A   Clear
5:30 PM 30.2 °F 25.4 °F 24.8 °F 80% 29.64 in 10.0 mi NE 4.6 mph - N/A   Clear
5:50 PM 32.0 °F 28.7 °F 24.8 °F 75% 29.65 in 10.0 mi NE 3.5 mph - N/A   Clear
6:10 PM 30.2 °F 25.4 °F 24.8 °F 80% 29.66 in 10.0 mi NNE 4.6 mph - N/A   Clear
6:30 PM 28.4 °F 24.6 °F 23.0 °F 80% 29.67 in 10.0 mi NNE 3.5 mph - N/A   Clear
6:50 PM 28.4 °F 24.6 °F 23.0 °F 80% 29.69 in 10.0 mi NE 3.5 mph - N/A   Scattered Clouds
7:10 PM 24.8 °F - 21.2 °F 86% 29.70 in 10.0 mi Calm Calm - N/A   Scattered Clouds
7:30 PM 24.8 °F - 21.2 °F 86% 29.71 in 10.0 mi Calm Calm - N/A   Clear
7:50 PM 26.6 °F - 21.2 °F 80% 29.72 in 10.0 mi Calm Calm - N/A   Clear
8:10 PM 26.6 °F - 21.2 °F 80% 29.73 in 10.0 mi Calm Calm - N/A   Clear
8:30 PM 26.6 °F 21.2 °F 21.2 °F 80% 29.74 in 10.0 mi NW 4.6 mph - N/A   Clear
8:50 PM 24.8 °F 20.5 °F 21.2 °F 86% 29.75 in 10.0 mi North 3.5 mph - N/A   Scattered Clouds
9:10 PM 26.6 °F 17.5 °F 23.0 °F 86% 29.76 in 10.0 mi NNE 9.2 mph - N/A   Scattered Clouds
9:30 PM 26.6 °F 17.5 °F 21.2 °F 80% 29.77 in 10.0 mi NNE 9.2 mph - N/A   Scattered Clouds
9:50 PM 24.8 °F 15.3 °F 21.2 °F 86% 29.78 in 10.0 mi NE 9.2 mph - N/A   Clear
10:10 PM 24.8 °F 14.6 °F 19.4 °F 80% 29.79 in 10.0 mi NNE 10.4 mph - N/A   Clear
10:30 PM 23.0 °F 14.7 °F 19.4 °F 86% 29.80 in 10.0 mi NNE 6.9 mph - N/A   Clear
10:50 PM 23.0 °F 15.8 °F 19.4 °F 86% 29.81 in 10.0 mi NNE 5.8 mph - N/A   Clear
11:10 PM 21.2 °F 13.6 °F 17.6 °F 86% 29.82 in 10.0 mi North 5.8 mph - N/A   Clear
11:30 PM 17.6 °F 10.7 °F 14.0 °F 86% 29.83 in 10.0 mi North 4.6 mph - N/A   Clear
11:50 PM 19.4 °F 8.6 °F 17.6 °F 93% 29.83 in 10.0 mi North 9.2 mph - N/A   Clear